Location: Round Knob
(37.2473°N, 88.7376°W)
Time: 11:35:10
(UTC+00:00)

Hubble Space Telescope - Visible Passes

Search period start: 18 September 2021 00:00
Search period end: 28 September 2021 00:00
Orbit: 535 x 539 km, 28.5° (Epoch: 18 September)

Date Brightness Start Highest point End Pass type
(mag) Time Alt. Az. Time Alt. Az. Time Alt. Az.
18 Sep 2.9 01:39:57 10° SW 01:42:22 15° SSW 01:42:43 15° S visible
19 Sep 3.1 01:29:17 10° SW 01:31:14 13° SSW 01:32:18 12° S visible
20 Sep 3.3 01:18:58 10° SW 01:20:04 11° SSW 01:21:11 10° S visible
